Location: ?????????
(41.2393°N, 22.9479°E)
Time: 13:50:35
(UTC+00:00)

Cosmos 371 Rocket - Pass Details

Date: 17 November 2025
Orbit: 674 x 690 km, 74.0° (Epoch: 06 December)

Event Time Altitude Azimuth Distance (km) Brightness Sun altitude
Rises 16:24:47 0° 180° (S) 3,024 6.8 -14.6°
Reaches altitude 10° 16:27:09 10° 174° (S) 2,116 5.9 -15.0°
Maximum altitude 16:31:39 43° 103° (ESE) 965 3.6 -15.9°
Enters shadow 16:34:15 23° 45° (NE) 1,463 4.5 -16.3°
